TimeCDT,TemperatureF,Dew PointF,Humidity,Sea Level PressureIn,VisibilityMPH,Wind Direction,Wind SpeedMPH,Gust SpeedMPH,PrecipitationIn,Events,Conditions,WindDirDegrees,DateUTC
12:35 AM,68.0,62.6,83,29.91,8.0,West,27.6,38.0,0.00,Rain-Thunderstorm,Light Rain,270,2013-06-22 05:35:00
12:53 AM,66.0,62.1,87,29.91,10.0,WNW,19.6,29.9,0.01,Rain,Light Rain,290,2013-06-22 05:53:00
1:13 AM,64.4,62.6,94,29.95,9.0,NW,19.6,-,0.01,Rain-Thunderstorm,Thunderstorms and Rain,320,2013-06-22 06:13:00
1:45 AM,64.4,62.6,94,29.94,6.0,North,15.0,-,0.10,Rain-Thunderstorm,Thunderstorms and Rain,10,2013-06-22 06:45:00
1:53 AM,64.0,62.1,93,29.89,6.0,North,20.7,24.2,0.12,Rain-Thunderstorm,Thunderstorms and Rain,360,2013-06-22 06:53:00
2:06 AM,64.4,62.6,94,29.93,8.0,NW,9.2,18.4,0.02,Rain,Rain,320,2013-06-22 07:06:00
2:53 AM,64.0,62.1,93,29.81,10.0,NNW,17.3,-,0.03,Rain,Light Rain,340,2013-06-22 07:53:00
3:44 AM,64.4,62.6,94,29.80,10.0,ENE,17.3,-,0.00,,Scattered Clouds,70,2013-06-22 08:44:00
3:53 AM,64.9,62.1,90,29.85,10.0,SSE,17.3,-,0.00,,Scattered Clouds,150,2013-06-22 08:53:00
4:00 AM,66.2,62.6,88,29.88,10.0,ESE,16.1,25.3,N/A,,Scattered Clouds,120,2013-06-22 09:00:00
4:53 AM,66.0,62.1,87,29.87,10.0,SE,8.1,-,0.00,,Clear,130,2013-06-22 09:53:00
5:53 AM,66.0,63.0,90,29.89,10.0,SSE,13.8,-,N/A,,Partly Cloudy,160,2013-06-22 10:53:00
6:53 AM,66.0,63.0,90,29.85,10.0,South,11.5,-,N/A,,Clear,170,2013-06-22 11:53:00
7:53 AM,68.0,64.0,87,29.80,10.0,SE,11.5,-,N/A,,Clear,140,2013-06-22 12:53:00
8:53 AM,69.1,64.9,87,29.81,10.0,NNE,12.7,-,N/A,,Clear,30,2013-06-22 13:53:00
9:53 AM,73.0,64.9,76,29.85,10.0,East,6.9,-,N/A,,Clear,80,2013-06-22 14:53:00
10:53 AM,73.9,64.0,71,29.87,10.0,ESE,5.8,-,N/A,,Scattered Clouds,120,2013-06-22 15:53:00
11:53 AM,75.9,64.0,67,29.88,10.0,South,6.9,-,N/A,,Scattered Clouds,190,2013-06-22 16:53:00
12:53 PM,77.0,64.0,64,29.88,10.0,SW,9.2,-,N/A,,Partly Cloudy,220,2013-06-22 17:53:00
1:53 PM,77.0,63.0,62,29.88,10.0,SW,12.7,23.0,N/A,,Partly Cloudy,230,2013-06-22 18:53:00
2:53 PM,78.1,64.0,62,29.86,10.0,West,9.2,-,N/A,,Clear,270,2013-06-22 19:53:00
3:53 PM,80.1,63.0,56,29.84,10.0,Calm,Calm,-,N/A,,Partly Cloudy,0,2013-06-22 20:53:00
4:53 PM,80.1,61.0,52,29.81,10.0,South,4.6,-,N/A,,Mostly Cloudy,180,2013-06-22 21:53:00
5:53 PM,79.0,64.0,60,29.79,10.0,SE,8.1,-,N/A,,Mostly Cloudy,140,2013-06-22 22:53:00
6:53 PM,77.0,64.9,66,29.78,10.0,SE,8.1,-,N/A,,Overcast,130,2013-06-22 23:53:00
7:53 PM,75.9,66.0,71,29.77,10.0,ESE,11.5,-,N/A,,Overcast,120,2013-06-23 00:53:00
8:53 PM,73.9,66.0,76,29.77,10.0,ESE,6.9,-,N/A,,Overcast,110,2013-06-23 01:53:00
9:53 PM,73.0,66.9,81,29.74,10.0,East,8.1,-,N/A,Thunderstorm,Mostly Cloudy,90,2013-06-23 02:53:00
10:53 PM,71.1,66.9,87,29.70,5.0,ENE,20.7,-,0.13,Rain-Thunderstorm,Heavy Thunderstorms and Rain,70,2013-06-23 03:53:00
10:58 PM,69.8,66.2,88,29.73,2.5,ENE,24.2,-,0.10,Rain-Thunderstorm,Heavy Thunderstorms and Rain,70,2013-06-23 03:58:00
11:07 PM,71.6,66.2,83,29.72,6.0,ENE,20.7,-,0.13,Rain-Thunderstorm,Light Thunderstorms and Rain,60,2013-06-23 04:07:00
11:53 PM,69.1,60.1,73,29.69,10.0,North,13.8,26.5,0.13,Thunderstorm,Mostly Cloudy,350,2013-06-23 04:53:00